STARLINK-34505, 64490

Orbit data source: Space-Track

STARLINK-34505, 64490 is a payload satellite owned by SpaceX/Seattle (US) in LEO that was launched on Mon, 23 Jun 2025 UTC via an FALCON 9 launch vehicle from the Air Force Eastern Test Range (AFETR). Payload-class satellites include a variety of spacecraft equipped with specific instruments for various scientific and technological missions. These include communications satellites like Starlink; space stations such as the ISS; scientific satellites like the Hubble; Earth observation satellites from companies like Planet Labs, Umbra, and HawkEye 360; GPS; miniature CubeSats for education and research; and military/defense satellites.

Loading next visibility...
Identifier
64490, 2025-133U
Orbit
LEO
Country
Flag of USUS
Related business
Manufacturer
SpaceX/Seattle
Mission
Operational Commercial Communications
Bus & Motor
STARLINK V2MO, Unknown motor
Mass
575 kg wet, ~530 kg dry
Launch date (UTC)
2025-06-23 (1 year ago)
Launch vehicle
FALCON 9
Launch site
Air Force Eastern Test Range (AFETR)
Object type
Payload
Rocket body
Debris
Shape & HBR
Box + 2 Pan, 17.7 m
Radar Cross Section
36.964 m², Large (>1 m²)

Expand to show TLE details & history
Last TLE update: 22 hours ago

TLE from 22 hours ago
0 STARLINK-34505
1 64490U 25133U   26170.94857065  .00023043  00000-0  78736-3 0  9993
2 64490  53.1598   1.8864 0000966  92.4849 267.6262 15.30215099 56827
Epoch: 2026-06-19T22:45Z
TLE epoch observation values (Epoch: 2026-06-19T22:45:56.504Z)
Latitude
-0.00003°
Longitude
112.23072°
Altitude
476.097 km
Speed
7.629 km/s
True Right ascension
00h 07m 32s
True Declination
0° 00' 00"
Sunlit
Object was in daylight at epoch
Visualization orbit readout
Latitude
Unknown
Longitude
Unknown
Altitude
Unknown
Speed
Unknown
Apparent Right ascension
Unknown
Apparent Declination
Unknown
Sunlit
N/A
Visualization observer readout
Local Sidereal Time
07:18:41
Azimuth
Unknown
Elevation
Unknown
Doppler factor
Unknown
Orbital elements
Apogee altitude
476.089 km
Perigee altitude
474.764 km
Semi-major axis
6,853.563 km
Eccentricity
0.0001
Inclination
53.1598°
RAAN
1.8864°
Arg. of periapsis
92.4849°
True anomaly
267.61514°
Mean anomaly
267.6262°
Eccentric anomaly
267.62067°
Mean motion
3.82533 °/min
Orbital period
94.11 mins
BSTAR
0.00078736
Loading maneuver chart data...
Computing Atmospheric mass density...
Loading historical data...
Loading historical data...
Loading historical data...
Loading historical data...
Loading historical data...
Loading historical data...
Loading historical data...

Documentation

Showing up to 5 results
|